Stuart, FL

6:20 AM EST on February 26, 2017 (GMT -0500)
Witham

Weather History for KSUA - March, 2012

Change the Weather History Date:

Thursday, March 1, 2012

  Actual Average Record
Temperature  
Mean Temperature 75 °F -  
Max Temperature 82 °F 75 °F 87 °F (2003)
Min Temperature 68 °F 55 °F 38 °F (1968)
Cooling Degree Days 10    
Growing Degree Days 25 (Base 50)    
Moisture  
Dew Point 67 °F    
Average Humidity 79    
Maximum Humidity 94    
Minimum Humidity 58    
Precipitation  
Precipitation 0.00 in - - ()
Sea Level Pressure  
Sea Level Pressure 30.09 in    
Wind  
Wind Speed 4 mph (SSW)    
Max Wind Speed 12 mph    
Max Gust Speed 16 mph    
Visibility 9 miles    
Events      
Averages and records for this station are not official NWS values.
T = Trace of Precipitation, MM = Missing Value Source: NWS Daily Summary

Daily Weather History Graph

Daily Weather History Graph

Search for Another Location

Airport or City:

Trip Planner

Search our weather history database for the weather conditions in past years. The results will help you decide how hot, cold, wet, or windy it might be!

Date:

Astronomy

Mar. 01, 2012 Rise Set
Actual Time 6:44 AM EST 6:22 PM EST
Civil Twilight 6:21 AM EST 6:45 PM EST
Nautical Twilight 5:54 AM EST 7:12 PM EST
Astronomical Twilight 5:27 AM EST 7:39 PM EST
Moon 12:04 PM EST (3/1) 1:18 AM EST (3/1)
Length of Visible Light 12h 24m
Length of Day
11h 37m
First Quarter, 56% of the Moon is Illuminated
Mar 1
First Quarter
Mar 8
Full
Mar 14
Last Quarter
Mar 22
New
Mar 30
First Quarter

Hourly Weather History & Observations

Time (EST) Temp. Heat Index Dew Point Humidity Pressure Visibility Wind Dir Wind Speed Gust Speed Precip Events Conditions
12:15 AM 71.6 °F - 68.0 °F 88% 30.14 in 10.0 mi SW 3.5 mph - N/A   Clear
12:35 AM 69.8 °F - 68.0 °F 94% 30.14 in 10.0 mi Calm Calm - N/A   Mostly Cloudy
12:55 AM 69.8 °F - 68.0 °F 94% 30.14 in 10.0 mi SW 3.5 mph - N/A   Overcast
1:15 AM 69.8 °F - 68.0 °F 94% 30.13 in 10.0 mi SW 3.5 mph - N/A   Mostly Cloudy
1:35 AM 69.8 °F - 68.0 °F 94% 30.13 in 10.0 mi West 3.5 mph - N/A   Clear
1:55 AM 69.8 °F - 68.0 °F 94% 30.12 in 10.0 mi WSW 3.5 mph - N/A   Scattered Clouds
2:15 AM 69.8 °F - 68.0 °F 94% 30.11 in 10.0 mi SW 3.5 mph - N/A   Scattered Clouds
2:35 AM 69.8 °F - 68.0 °F 94% 30.10 in 10.0 mi Calm Calm - N/A   Clear
2:55 AM 69.8 °F - 68.0 °F 94% 30.10 in 10.0 mi Calm Calm - N/A   Scattered Clouds
3:15 AM 69.8 °F - 68.0 °F 94% 30.10 in 10.0 mi Calm Calm - N/A   Overcast
3:35 AM 69.8 °F - 68.0 °F 94% 30.10 in 10.0 mi Calm Calm - N/A   Overcast
4:15 AM 68.0 °F - 66.2 °F 94% 30.10 in 5.0 mi Calm Calm - N/A   Mostly Cloudy
4:35 AM 68.0 °F - 66.2 °F 94% 30.10 in 7.0 mi Calm Calm - N/A   Clear
5:15 AM 68.0 °F - 66.2 °F 94% 30.10 in 10.0 mi Calm Calm - N/A   Clear
6:47 AM - - - N/A% 30.12 in 6.0 mi Calm Calm - N/A   Mostly Cloudy
7:47 AM 71.6 °F - 68.0 °F 88% 30.12 in 7.0 mi Calm Calm - N/A   Mostly Cloudy
8:47 AM 71.6 °F - 69.8 °F 94% 30.14 in 7.0 mi Calm Calm - N/A   Mostly Cloudy
9:47 AM 75.2 °F - 71.6 °F 89% 30.15 in 7.0 mi Calm Calm - N/A   Mostly Cloudy
10:47 AM 80.6 °F 82.7 °F 66.2 °F 61% 30.14 in 7.0 mi SSW 9.2 mph - N/A   Mostly Cloudy
11:47 AM 80.6 °F 83.2 °F 68.0 °F 65% 30.14 in 7.0 mi West 11.5 mph - N/A   Mostly Cloudy
12:47 PM 80.6 °F 82.7 °F 66.2 °F 61% 30.10 in 7.0 mi West 4.6 mph - N/A   Mostly Cloudy
1:47 PM 82.4 °F 85.4 °F 68.0 °F 62% 30.05 in 7.0 mi ESE 9.2 mph - N/A   Mostly Cloudy
3:47 PM 82.4 °F 84.6 °F 66.2 °F 58% 30.02 in 7.0 mi SSE 11.5 mph 16.1 mph N/A   Mostly Cloudy
4:47 PM 82.4 °F 84.6 °F 66.2 °F 58% 30.02 in 7.0 mi South 11.5 mph 16.1 mph N/A   Mostly Cloudy
5:47 PM 80.6 °F 82.7 °F 66.2 °F 61% 30.02 in 7.0 mi South 9.2 mph - N/A   Scattered Clouds
6:47 PM 77.0 °F - 66.2 °F 69% 30.03 in 7.0 mi SE 6.9 mph - N/A   Scattered Clouds
7:15 PM 77.0 °F - 66.2 °F 69% 30.04 in 10.0 mi SSE 5.8 mph - N/A   Scattered Clouds
7:35 PM 75.2 °F - 66.2 °F 73% 30.04 in 10.0 mi SSE 5.8 mph - N/A   Clear
7:55 PM 75.2 °F - 64.4 °F 69% 30.05 in 10.0 mi SSE 4.6 mph - N/A   Scattered Clouds
8:15 PM 75.2 °F - 64.4 °F 69% 30.06 in 10.0 mi SSE 4.6 mph - N/A   Mostly Cloudy
8:35 PM 75.2 °F - 66.2 °F 73% 30.06 in 10.0 mi South 5.8 mph - N/A   Overcast
8:55 PM 75.2 °F - 64.4 °F 69% 30.07 in 10.0 mi South 6.9 mph - N/A   Scattered Clouds
9:15 PM 75.2 °F - 66.2 °F 73% 30.07 in 10.0 mi South 6.9 mph - N/A   Scattered Clouds
9:35 PM 73.4 °F - 64.4 °F 73% 30.07 in 10.0 mi South 6.9 mph - N/A   Clear
9:55 PM 73.4 °F - 64.4 °F 73% 30.07 in 10.0 mi South 6.9 mph - N/A   Clear
10:15 PM 73.4 °F - 64.4 °F 73% 30.07 in 10.0 mi South 9.2 mph - N/A   Scattered Clouds
10:35 PM 73.4 °F - 64.4 °F 73% 30.07 in 10.0 mi South 6.9 mph - N/A   Scattered Clouds
10:55 PM 73.4 °F - 66.2 °F 78% 30.07 in 10.0 mi SSW 8.1 mph - N/A   Mostly Cloudy
11:15 PM 73.4 °F - 66.2 °F 78% 30.07 in 10.0 mi SSW 5.8 mph - N/A   Scattered Clouds
11:35 PM 73.4 °F - 66.2 °F 78% 30.06 in 10.0 mi SW 4.6 mph - N/A   Clear
11:55 PM 73.4 °F - 66.2 °F 78% 30.06 in 10.0 mi SW 4.6 mph - N/A   Mostly Cloudy